EW8865 Weather Reports


time (UTC)temp
C
wind
direction
speed
KPH
gust
KPH
rain 1hr
cm
rain 24hr
cm
rain mn
cm
humidity
%
barometer
mb
20260508133004 17 135 11.3 19.3 0.00 0.05 0.05 62 1014.5
20260508132004 17 166 8.0 16.1 0.00 0.05 0.05 62 1014.6
20260508131503 17 121 11.3 19.3 0.00 0.05 0.05 63 1014.6
20260508131004 17 119 6.4 16.1 0.00 0.05 0.05 62 1014.7
20260508130504 17 111 6.4 16.1 0.00 0.05 0.05 64 1014.7
20260508125005 16 102 1.6 12.9 0.00 0.05 0.05 68 1014.6
20260508124503 16 90 3.2 4.8 0.00 0.05 0.05 69 1014.7
20260508124004 16 82 4.8 11.3 0.00 0.05 0.05 70 1014.7
20260508123503 16 117 3.2 9.7 0.00 0.05 0.05 69 1014.6
20260508123003 16 82 4.8 11.3 0.00 0.05 0.05 69 1014.6
20260508122504 16 112 1.6 9.7 0.00 0.05 0.05 71 1014.6
20260508122003 16 103 4.8 11.3 0.00 0.05 0.05 72 1014.7
20260508121505 16 77 8.0 12.9 0.00 0.05 0.05 70 1014.8
20260508121003 16 92 8.0 12.9 0.00 0.05 0.05 73 1014.8
20260508120004 15 94 4.8 12.9 0.00 0.05 0.05 73 1014.8
20260508115504 15 109 6.4 12.9 0.00 0.05 0.05 73 1014.8
20260508115004 15 67 4.8 12.9 0.00 0.05 0.05 73 1014.8
20260508114503 15 37 4.8 16.1 0.00 0.05 0.05 73 1014.7
20260508114004 15 51 8.0 12.9 0.00 0.05 0.05 74 1014.7
20260508113505 15 83 9.7 14.5 0.00 0.05 0.05 72 1014.8
20260508113005 15 111 6.4 12.9 0.00 0.05 0.05 74 1014.9
20260508112504 15 44 4.8 14.5 0.00 0.05 0.05 74 1014.9
20260508112003 15 107 4.8 11.3 0.00 0.05 0.05 76 1014.9
20260508111505 14 94 4.8 9.7 0.00 0.05 0.05 77 1014.9
20260508111004 13 50 8.0 12.9 0.00 0.05 0.05 79 1015.0
20260508110503 13 62 9.7 14.5 0.00 0.05 0.05 78 1015.1
20260508110004 13 90 4.8 14.5 0.00 0.05 0.05 76 1015.1
20260508105004 13 92 8.0 14.5 0.00 0.05 0.05 77 1015.0
20260508104504 13 87 11.3 19.3 0.00 0.05 0.05 77 1015.0
20260508102505 13 121 9.7 19.3 0.00 0.05 0.05 74 1015.1
20260508102003 13 130 8.0 14.5 0.00 0.05 0.05 75 1015.0
20260508101504 13 110 11.3 16.1 0.00 0.05 0.05 74 1015.0
20260508101004 14 114 8.0 19.3 0.00 0.05 0.05 74 1015.0
20260508100503 14 95 12.9 19.3 0.00 0.05 0.05 73 1015.0
20260508100005 14 99 11.3 19.3 0.00 0.05 0.05 74 1014.9
20260508095503 14 85 9.7 16.1 0.00 0.05 0.05 72 1014.9
20260508095004 15 87 8.0 16.1 0.00 0.05 0.05 72 1014.9
20260508094003 15 85 6.4 19.3 0.00 0.05 0.05 70 1014.9
20260508093503 16 104 9.7 19.3 0.00 0.05 0.05 70 1014.8
20260508093004 16 110 8.0 14.5 0.00 0.05 0.05 72 1014.9
20260508092503 15 92 8.0 16.1 0.00 0.05 0.05 74 1014.9
20260508092004 15 119 8.0 19.3 0.00 0.05 0.05 74 1014.9
20260508091503 15 128 12.9 16.1 0.00 0.05 0.05 73 1014.9
20260508090504 14 94 9.7 14.5 0.00 0.05 0.05 76 1015.0
20260508090004 13 101 8.0 14.5 0.00 0.05 0.05 79 1015.0
20260508085003 12 56 4.8 12.9 0.00 0.05 0.05 80 1015.1
20260508084504 12 90 8.0 14.5 0.00 0.05 0.05 80 1015.1
20260508084003 12 107 4.8 14.5 0.00 0.05 0.05 79 1015.0
20260508083504 12 105 8.0 14.5 0.00 0.05 0.05 80 1015.1
20260508083004 12 89 9.7 14.5 0.00 0.05 0.05 78 1015.1
20260508082503 12 101 6.4 12.9 0.00 0.05 0.05 80 1015.1
20260508082004 12 89 3.2 8.0 0.00 0.05 0.05 81 1015.1
20260508081504 12 93 6.4 11.3 0.00 0.05 0.05 81 1015.1
20260508080504 12 108 4.8 11.3 0.00 0.05 0.05 82 1015.0
20260508080004 12 121 8.0 12.9 0.00 0.05 0.05 82 1014.9
20260508075505 12 118 6.4 11.3 0.00 0.05 0.05 83 1014.8
20260508075004 11 80 3.2 4.8 0.00 0.05 0.05 85 1014.7
20260508074503 11 45 3.2 4.8 0.00 0.05 0.05 85 1014.7
20260508074006 11 37 3.2 4.8 0.00 0.05 0.05 86 1014.7
20260508073503 11 29 1.6 9.7 0.00 0.05 0.05 87 1014.7
20260508073003 11 37 3.2 4.8 0.00 0.05 0.05 88 1014.6
20260508072504 11 32 1.6 4.8 0.00 0.05 0.05 88 1014.6
20260508072005 10 57 3.2 4.8 0.00 0.05 0.05 89 1014.6
20260508071505 10 66 4.8 9.7 0.00 0.05 0.05 89 1014.6
20260508071004 10 51 4.8 9.7 0.00 0.05 0.05 89 1014.6
20260508070504 10 62 4.8 8.0 0.00 0.05 0.05 90 1014.5
20260508065504 10 73 3.2 11.3 0.00 0.05 0.05 90 1014.6
20260508065004 10 135 1.6 4.8 0.00 0.05 0.05 90 1014.6
20260508064505 9 161 1.6 4.8 0.00 0.05 0.05 90 1014.7
20260508064004 9 72 0.0 4.8 0.00 0.05 0.05 90 1014.7
20260508063503 9 106 1.6 8.0 0.00 0.05 0.05 90 1014.8
20260508063004 9 115 1.6 4.8 0.00 0.05 0.05 90 1014.8
20260508062504 9 117 1.6 3.2 0.00 0.05 0.05 90 1014.8
20260508061504 9 136 1.6 4.8 0.00 0.05 0.05 90 1014.8
20260508061004 9 136 0.0 4.8 0.00 0.05 0.05 90 1014.7
20260508060004 8 136 0.0 3.2 0.00 0.05 0.05 90 1014.7
20260508055504 8 136 1.6 4.8 0.00 0.05 0.05 90 1014.6
20260508055004 8 136 0.0 1.6 0.00 0.05 0.05 90 1014.5
20260508054505 8 136 1.6 3.2 0.00 0.05 0.05 90 1014.5
20260508054003 8 136 0.0 0.0 0.00 0.05 0.05 90 1014.5
20260508053503 8 136 0.0 0.0 0.00 0.05 0.05 90 1014.4
20260508052004 8 136 0.0 3.2 0.00 0.05 0.05 90 1014.4
20260508051504 8 136 1.6 1.6 0.00 0.05 0.05 90 1014.2
20260508051003 8 136 0.0 3.2 0.00 0.05 0.05 90 1014.2
20260508050504 8 144 0.0 4.8 0.00 0.05 0.05 90 1014.1
20260508050004 8 146 0.0 1.6 0.00 0.05 0.05 90 1014.1
20260508045503 8 146 0.0 1.6 0.00 0.05 0.05 90 1014.1
20260508045004 8 145 1.6 3.2 0.00 0.05 0.05 90 1014.1
20260508043504 8 169 1.6 3.2 0.00 0.05 0.05 90 1014.1
20260508043004 8 169 1.6 3.2 0.00 0.05 0.05 90 1014.2
20260508042004 9 169 1.6 3.2 0.00 0.05 0.05 90 1014.2
20260508041504 9 169 1.6 4.8 0.00 0.05 0.05 90 1014.1
20260508040504 9 175 0.0 0.0 0.00 0.05 0.05 90 1014.2
20260508040004 9 175 0.0 0.0 0.00 0.05 0.05 89 1014.1
20260508035504 9 175 0.0 3.2 0.00 0.05 0.05 89 1014.1
20260508035003 9 175 1.6 3.2 0.00 0.05 0.05 89 1014.1
20260508034504 9 175 0.0 0.0 0.00 0.05 0.05 89 1014.2
20260508034005 9 175 0.0 1.6 0.00 0.05 0.05 89 1014.2
20260508033503 9 175 0.0 3.2 0.00 0.05 0.05 89 1014.2
20260508033004 9 175 1.6 3.2 0.00 0.05 0.05 89 1014.2
20260508032004 9 178 3.2 4.8 0.00 0.05 0.05 89 1014.4
20260508031504 9 182 3.2 4.8 0.00 0.05 0.05 89 1014.4
20260508031004 9 182 0.0 4.8 0.00 0.05 0.05 89 1014.4
20260508030504 9 182 1.6 4.8 0.00 0.05 0.05 89 1014.4
20260508030004 9 182 0.0 0.0 0.00 0.05 0.05 89 1014.4
20260508025504 9 182 0.0 0.0 0.00 0.05 0.05 89 1014.5
20260508025004 9 183 0.0 0.0 0.00 0.05 0.05 89 1014.4
20260508024504 9 183 0.0 0.0 0.00 0.05 0.05 89 1014.5
20260508023503 9 183 0.0 0.0 0.00 0.05 0.05 88 1014.5
20260508023004 9 183 0.0 0.0 0.00 0.05 0.05 88 1014.5
20260508022503 9 183 0.0 0.0 0.00 0.05 0.05 88 1014.5
20260508021504 9 183 0.0 0.0 0.00 0.05 0.05 88 1014.5
20260508021004 9 183 0.0 0.0 0.00 0.05 0.05 88 1014.5
20260508020504 9 183 0.0 0.0 0.00 0.05 0.05 88 1014.5
20260508020003 9 183 0.0 0.0 0.00 0.05 0.05 88 1014.4
20260508015504 9 183 0.0 0.0 0.00 0.05 0.05 88 1014.4
20260508015003 9 182 0.0 3.2 0.00 0.05 0.05 87 1014.4
20260508014504 9 183 1.6 3.2 0.03 0.05 0.05 87 1014.4
20260508013504 10 183 1.6 4.8 0.05 0.05 0.05 88 1014.4
20260508013004 10 183 3.2 4.8 0.05 0.05 0.05 88 1014.5
20260508012503 10 189 3.2 4.8 0.05 0.05 0.05 88 1014.5
20260508012004 10 244 1.6 3.2 0.05 0.05 0.05 88 1014.4
20260508011503 10 246 1.6 3.2 0.05 0.05 0.05 88 1014.5
20260508011004 9 246 1.6 4.8 0.05 0.05 0.05 88 1014.5
20260508010504 9 246 3.2 4.8 0.05 0.05 0.05 87 1014.6
20260508010004 9 253 1.6 4.8 0.05 0.05 0.05 87 1014.6
20260508005503 9 253 1.6 3.2 0.05 0.05 0.05 86 1014.6
20260508005004 9 252 0.0 0.0 0.05 0.05 0.05 86 1014.6
20260508004504 9 252 0.0 0.0 0.03 0.03 0.03 85 1014.7
20260508004003 9 252 0.0 0.0 0.00 0.00 0.00 85 1014.8
20260508003004 8 252 0.0 0.0 0.00 0.00 0.00 85 1014.7
20260508002503 8 252 0.0 0.0 0.00 0.00 0.00 85 1014.6
20260508002004 8 252 0.0 0.0 0.00 0.00 0.00 85 1014.7
20260508001504 8 252 0.0 0.0 0.00 0.00 0.00 85 1014.6
20260508001003 8 252 0.0 0.0 0.00 0.00 0.00 85 1014.6
20260508000503 8 252 0.0 0.0 0.00 0.00 0.00 85 1014.6
20260508000003 8 252 0.0 0.0 0.00 0.00 0.00 84 1014.6
20260507235504 8 252 0.0 0.0 0.00 0.00 0.00 84 1014.6
20260507235003 8 252 0.0 0.0 0.00 0.00 0.00 84 1014.6
20260507234503 8 252 0.0 0.0 0.00 0.00 0.00 83 1014.6
20260507233504 8 252 0.0 0.0 0.00 0.00 0.00 83 1014.7
20260507233004 9 252 0.0 0.0 0.00 0.00 0.00 83 1014.7
20260507232003 9 252 0.0 0.0 0.00 0.00 0.00 82 1014.7
20260507231503 9 252 0.0 0.0 0.00 0.00 0.00 81 1014.7
20260507231004 9 252 0.0 0.0 0.00 0.00 0.00 81 1014.7
20260507230503 9 252 0.0 0.0 0.00 0.00 0.00 81 1014.7
20260507230005 10 252 0.0 0.0 0.00 0.00 0.00 81 1014.7
20260507225504 10 252 0.0 0.0 0.00 0.00 0.00 81 1014.7
20260507225004 10 252 0.0 0.0 0.00 0.00 0.00 81 1014.7
20260507224505 10 252 0.0 0.0 0.00 0.00 0.00 81 1014.8
20260507224004 10 252 0.0 0.0 0.00 0.00 0.00 80 1014.8
20260507223004 10 252 0.0 0.0 0.00 0.00 0.00 79 1014.8
20260507222503 10 252 0.0 0.0 0.00 0.00 0.00 78 1014.8
20260507222004 10 252 0.0 0.0 0.00 0.00 0.00 78 1014.7
20260507221504 10 252 0.0 0.0 0.00 0.00 0.00 78 1014.7
20260507221003 10 252 0.0 0.0 0.00 0.00 0.00 78 1014.8
20260507220504 10 252 0.0 0.0 0.00 0.00 0.00 78 1014.8
20260507220004 11 252 0.0 0.0 0.00 0.00 0.00 78 1014.7
20260507215503 11 252 0.0 1.6 0.00 0.00 0.00 78 1014.7
20260507215004 11 252 0.0 3.2 0.00 0.00 0.00 78 1014.8
20260507214504 11 252 0.0 3.2 0.00 0.00 0.00 77 1014.8
20260507213503 11 252 1.6 3.2 0.00 0.00 0.00 77 1014.8
20260507213004 11 252 0.0 3.2 0.00 0.00 0.00 77 1014.8
20260507212503 11 252 0.0 3.2 0.00 0.00 0.00 77 1014.8
20260507212003 11 252 0.0 3.2 0.00 0.00 0.00 76 1014.8
20260507211504 11 252 3.2 4.8 0.00 0.00 0.00 76 1014.7
20260507211004 11 252 3.2 4.8 0.00 0.00 0.00 76 1014.7
20260507210504 11 252 1.6 4.8 0.00 0.00 0.00 75 1014.6
20260507210005 11 252 1.6 4.8 0.00 0.00 0.00 75 1014.5
20260507205503 11 252 3.2 4.8 0.00 0.00 0.00 75 1014.6
20260507205003 11 252 0.0 1.6 0.00 0.00 0.00 74 1014.5
20260507204504 11 252 0.0 1.6 0.00 0.00 0.00 74 1014.4
20260507204003 11 252 0.0 0.0 0.00 0.00 0.00 74 1014.5
20260507203503 11 252 0.0 1.6 0.00 0.00 0.00 74 1014.4
20260507203004 11 252 0.0 0.0 0.00 0.00 0.00 74 1014.3
20260507202504 11 252 0.0 0.0 0.00 0.00 0.00 73 1014.3
20260507201504 11 252 0.0 0.0 0.00 0.00 0.00 73 1014.2
20260507201003 12 252 0.0 0.0 0.00 0.00 0.00 73 1014.1
20260507200504 12 252 0.0 1.6 0.00 0.00 0.00 72 1014.1
20260507200003 12 252 0.0 3.2 0.00 0.00 0.00 72 1014.1
20260507195503 12 252 0.0 1.6 0.00 0.00 0.00 71 1014.1
20260507195004 12 252 1.6 3.2 0.00 0.00 0.00 71 1014.0
20260507194504 12 252 1.6 4.8 0.00 0.00 0.00 71 1014.0
20260507194004 12 252 1.6 4.8 0.00 0.00 0.00 71 1014.0
20260507193504 12 252 3.2 4.8 0.00 0.00 0.00 70 1014.0
20260507193004 12 251 3.2 4.8 0.00 0.00 0.00 71 1013.9
20260507192503 12 250 1.6 4.8 0.00 0.00 0.00 71 1013.9
20260507192004 12 250 1.6 4.8 0.00 0.00 0.00 71 1013.9
20260507191503 12 250 1.6 4.8 0.00 0.00 0.00 71 1013.9
20260507191004 12 250 4.8 8.0 0.00 0.00 0.00 70 1013.9
20260507190504 12 245 1.6 3.2 0.00 0.00 0.00 70 1013.9
20260507190005 12 245 1.6 3.2 0.00 0.00 0.00 69 1013.8
20260507185503 12 245 1.6 3.2 0.00 0.00 0.00 69 1013.8
20260507184003 13 245 1.6 4.8 0.00 0.00 0.00 69 1013.9
20260507183503 13 245 3.2 4.8 0.00 0.00 0.00 68 1013.9
20260507183004 13 245 1.6 4.8 0.00 0.00 0.00 68 1013.8
20260507182504 13 252 3.2 4.8 0.00 0.00 0.00 68 1013.9
20260507182004 13 252 3.2 8.0 0.00 0.00 0.00 68 1013.9
20260507181503 13 252 4.8 4.8 0.00 0.00 0.00 68 1013.8
20260507181003 13 248 4.8 8.0 0.00 0.00 0.00 67 1013.7
20260507180504 13 247 3.2 4.8 0.00 0.00 0.00 67 1013.7
20260507180004 13 243 3.2 4.8 0.00 0.00 0.00 66 1013.7
20260507175504 13 246 3.2 8.0 0.00 0.00 0.00 66 1013.7
20260507175003 13 240 3.2 8.0 0.00 0.00 0.00 66 1013.6
20260507174504 13 264 3.2 9.7 0.00 0.00 0.00 66 1013.7
20260507173004 13 270 4.8 4.8 0.00 0.00 0.00 65 1013.7
20260507172503 14 275 4.8 9.7 0.00 0.00 0.00 66 1013.7
20260507172004 14 271 0.0 3.2 0.00 0.00 0.00 66 1013.6
20260507171503 14 271 3.2 11.3 0.00 0.00 0.00 66 1013.6
20260507171005 13 186 4.8 9.7 0.00 0.00 0.00 66 1013.7
20260507170504 13 261 3.2 4.8 0.00 0.00 0.00 66 1013.7
20260507170003 13 265 4.8 11.3 0.00 0.00 0.00 67 1013.8
20260507165504 13 269 3.2 9.7 0.00 0.00 0.00 67 1013.9
20260507164504 13 280 4.8 9.7 0.00 0.00 0.00 67 1013.8
20260507164005 13 270 3.2 9.7 0.00 0.00 0.00 68 1013.8
20260507163504 13 281 6.4 9.7 0.00 0.00 0.00 68 1013.8
20260507162503 13 257 3.2 4.8 0.00 0.00 0.00 68 1013.7
20260507162004 13 264 4.8 11.3 0.00 0.00 0.00 68 1013.8
20260507161503 13 256 4.8 9.7 0.00 0.00 0.00 68 1013.8
20260507160504 13 255 4.8 8.0 0.00 0.00 0.00 69 1013.8
20260507155505 13 249 8.0 14.5 0.00 0.00 0.00 67 1013.8
20260507154503 13 268 8.0 16.1 0.00 0.00 0.00 66 1013.8
20260507154004 13 245 9.7 16.1 0.00 0.00 0.00 65 1013.8
20260507153504 13 200 8.0 11.3 0.00 0.00 0.00 64 1013.8
20260507153004 14 209 8.0 19.3 0.00 0.00 0.00 62 1013.8
20260507152504 14 209 9.7 19.3 0.00 0.00 0.00 62 1013.9
20260507152004 14 193 8.0 19.3 0.00 0.00 0.00 63 1013.9
20260507151504 14 204 9.7 16.1 0.00 0.00 0.00 61 1013.8
20260507151004 14 209 9.7 19.3 0.00 0.00 0.00 62 1013.8
20260507150503 14 173 9.7 19.3 0.00 0.00 0.00 61 1013.8
20260507150005 15 189 8.0 19.3 0.00 0.00 0.00 62 1013.8
20260507145503 15 147 9.7 19.3 0.00 0.00 0.00 61 1013.8
20260507145004 15 136 8.0 14.5 0.00 0.00 0.00 62 1013.8
20260507144503 15 205 6.4 16.1 0.00 0.00 0.00 63 1013.8
20260507144004 15 200 8.0 16.1 0.00 0.00 0.00 62 1013.8
20260507143504 15 205 9.7 22.5 0.00 0.00 0.00 61 1013.9
20260507143004 15 175 8.0 14.5 0.00 0.00 0.00 62 1013.9
20260507142503 15 175 9.7 19.3 0.00 0.00 0.00 61 1014.0
20260507141504 15 185 8.0 16.1 0.00 0.00 0.00 61 1014.1
20260507141004 15 147 8.0 16.1 0.00 0.00 0.00 63 1014.1
20260507140504 15 186 4.8 20.9 0.00 0.00 0.00 63 1014.1
20260507135004 15 182 6.4 19.3 0.00 0.00 0.00 62 1014.1
20260507134503 15 165 8.0 19.3 0.00 0.00 0.00 60 1014.0
20260507134003 15 206 12.9 16.1 0.00 0.00 0.00 61 1014.1
20260507133504 15 189 8.0 20.9 0.00 0.00 0.00 59 1014.0